GW1549 Weather Reports


time (UTC)temp
C
wind
direction
speed
KPH
gust
KPH
rain 1hr
cm
rain 24hr
cm
rain mn
cm
humidity
%
barometer
mb
20260508130308 10 199 6.4 9.7 0.00 0.00 0.00 72 1010.8
20260508125126 9 209 4.8 4.8 0.00 0.00 0.00 76 1010.8
20260508123936 8 227 6.4 6.4 0.00 0.00 0.00 79 1010.8
20260508123350 7 239 4.8 6.4 0.00 0.00 0.00 80 1010.8
20260508122731 7 212 6.4 6.4 0.00 0.00 0.00 81 1010.4
20260508122120 7 164 6.4 6.4 0.00 0.00 0.00 82 1010.4
20260508121537 6 225 4.8 4.8 0.00 0.00 0.00 83 1010.8
20260508120920 6 208 1.6 3.2 0.00 0.00 0.00 84 1010.4
20260508115710 5 227 0.0 0.0 0.00 0.00 0.00 85 1010.8
20260508115148 5 215 0.0 0.0 0.00 0.00 0.00 85 1010.4
20260508114519 5 234 3.2 3.2 0.00 0.00 0.00 85 1010.4
20260508113930 5 229 3.2 3.2 0.00 0.00 0.00 86 1010.4
20260508113316 5 268 3.2 3.2 0.00 0.00 0.00 86 1010.4
20260508112719 4 314 1.6 1.6 0.00 0.00 0.00 86 1010.1
20260508112143 4 233 3.2 3.2 0.00 0.00 0.00 86 1010.4
20260508111542 4 211 3.2 3.2 0.00 0.00 0.00 87 1010.1
20260508110922 3 217 1.6 3.2 0.00 0.00 0.00 87 1010.4
20260508110326 3 225 3.2 3.2 0.00 0.00 0.00 88 1010.1
20260508105142 3 324 0.0 0.0 0.00 0.00 0.00 92 1010.1
20260508103936 3 350 0.0 0.0 0.00 0.00 0.00 91 1010.1
20260508103338 3 358 0.0 0.0 0.00 0.00 0.00 90 1010.1
20260508102715 3 353 0.0 0.0 0.00 0.00 0.00 89 1010.1
20260508102115 3 329 0.0 0.0 0.00 0.00 0.00 89 1010.1
20260508101512 3 327 0.0 0.0 0.00 0.00 0.00 90 1009.8
20260508100938 3 238 0.0 0.0 0.00 0.00 0.00 90 1009.8
20260508100331 3 258 0.0 0.0 0.00 0.00 0.00 90 1009.4
20260508095748 3 310 0.0 0.0 0.00 0.00 0.00 90 1009.8
20260508095130 3 299 0.0 1.6 0.00 0.00 0.00 91 1009.8
20260508094522 3 262 0.0 0.0 0.00 0.00 0.00 93 1009.8
20260508093943 3 317 0.0 0.0 0.00 0.00 0.00 93 1009.8
20260508092722 2 334 0.0 0.0 0.00 0.00 0.00 94 1009.8
20260508092142 3 350 0.0 0.0 0.00 0.00 0.00 94 1009.8
20260508091528 2 355 0.0 0.0 0.00 0.00 0.00 93 1009.8
20260508090932 3 5 0.0 0.0 0.00 0.00 0.00 91 1009.4
20260508085139 3 317 0.0 0.0 0.00 0.00 0.00 90 1009.4
20260508084547 3 297 0.0 0.0 0.00 0.00 0.00 91 1009.4
20260508083912 3 314 0.0 0.0 0.00 0.00 0.00 91 1009.4
20260508083313 3 313 0.0 0.0 0.00 0.00 0.00 91 1009.4
20260508082735 3 231 0.0 1.6 0.00 0.00 0.00 92 1009.4
20260508082150 3 242 0.0 0.0 0.00 0.00 0.00 93 1009.4
20260508081537 3 297 0.0 0.0 0.00 0.00 0.00 94 1009.4
20260508080328 3 348 0.0 0.0 0.00 0.00 0.00 95 1009.4
20260508075731 3 355 0.0 0.0 0.00 0.00 0.00 95 1009.4
20260508075120 3 340 0.0 0.0 0.00 0.00 0.00 96 1009.4
20260508074529 3 302 0.0 0.0 0.00 0.00 0.00 96 1009.4
20260508073327 2 0 0.0 0.0 0.00 0.00 0.00 96 1009.4
20260508072733 2 15 0.0 0.0 0.00 0.00 0.00 96 1009.4
20260508072115 3 359 0.0 0.0 0.00 0.00 0.00 96 1009.4
20260508071537 3 342 0.0 0.0 0.00 0.00 0.00 96 1009.4
20260508070950 3 345 0.0 0.0 0.00 0.00 0.00 96 1009.4
20260508070338 3 353 0.0 0.0 0.00 0.00 0.00 96 1009.4
20260508065738 3 351 0.0 0.0 0.00 0.00 0.00 96 1009.4
20260508065133 2 357 0.0 0.0 0.00 0.00 0.00 95 1009.4
20260508064520 3 0 0.0 0.0 0.00 0.00 0.00 95 1009.4
20260508063925 2 1 0.0 0.0 0.00 0.00 0.00 94 1009.4
20260508063318 3 1 0.0 0.0 0.00 0.00 0.00 94 1009.8
20260508062742 2 1 0.0 0.0 0.00 0.00 0.00 94 1009.8
20260508062146 2 1 0.0 0.0 0.00 0.00 0.00 93 1009.8
20260508061530 2 1 0.0 0.0 0.00 0.00 0.00 93 1009.8
20260508060909 3 0 0.0 0.0 0.00 0.00 0.00 92 1009.4
20260508060341 2 0 0.0 0.0 0.00 0.00 0.00 92 1009.8
20260508055751 3 0 0.0 0.0 0.00 0.00 0.00 91 1009.8
20260508055141 3 0 0.0 0.0 0.00 0.00 0.00 91 1009.8
20260508054544 4 0 0.0 0.0 0.00 0.00 0.00 91 1009.4
20260508052737 4 357 0.0 0.0 0.00 0.00 0.00 90 1009.8
20260508052132 4 357 0.0 0.0 0.00 0.00 0.00 90 1009.8
20260508051526 4 358 0.0 1.6 0.00 0.00 0.00 91 1009.8
20260508050945 3 12 0.0 0.0 0.00 0.00 0.00 90 1009.8
20260508050309 3 13 0.0 0.0 0.00 0.00 0.00 89 1009.8
20260508045724 4 14 0.0 0.0 0.00 0.00 0.00 88 1009.8
20260508045128 4 14 0.0 0.0 0.00 0.00 0.00 88 1009.8
20260508044542 4 354 0.0 0.0 0.00 0.00 0.00 87 1009.8
20260508043936 4 354 0.0 0.0 0.00 0.00 0.00 87 1009.8
20260508043347 4 354 0.0 0.0 0.00 0.00 0.00 87 1009.8
20260508042723 4 354 0.0 0.0 0.00 0.00 0.00 87 1009.8
20260508042141 4 354 0.0 0.0 0.00 0.00 0.00 87 1010.1
20260508041532 5 353 0.0 0.0 0.00 0.00 0.00 87 1009.8
20260508040318 5 353 0.0 0.0 0.00 0.00 0.00 85 1009.8
20260508035120 6 352 0.0 0.0 0.00 0.00 0.00 81 1009.4
20260508034526 6 349 0.0 0.0 0.00 0.00 0.00 80 1009.8
20260508033916 6 344 0.0 0.0 0.00 0.00 0.00 81 1009.8
20260508033321 6 338 0.0 0.0 0.00 0.00 0.00 80 1009.8
20260508032734 6 355 0.0 0.0 0.00 0.00 0.00 78 1009.8
20260508032146 6 356 0.0 0.0 0.00 0.00 0.00 77 1009.8
20260508031526 6 357 0.0 0.0 0.00 0.00 0.00 81 1009.8
20260508030931 6 0 0.0 0.0 0.00 0.00 0.00 83 1009.8
20260508030311 6 0 0.0 0.0 0.00 0.00 0.00 82 1009.8
20260508025719 7 0 0.0 0.0 0.00 0.00 0.00 79 1009.8
20260508025114 7 0 0.0 0.0 0.00 0.00 0.00 76 1010.1
20260508024525 7 0 0.0 0.0 0.00 0.00 0.00 79 1009.8
20260508023946 7 0 0.0 0.0 0.00 0.00 0.00 76 1009.4
20260508023341 8 0 0.0 0.0 0.00 0.00 0.00 73 1010.1
20260508022723 8 0 0.0 0.0 0.00 0.00 0.00 68 1009.4
20260508021515 8 359 0.0 0.0 0.00 0.00 0.00 62 1009.4
20260508020945 9 0 0.0 0.0 0.00 0.00 0.00 66 1009.4
20260508020349 9 0 0.0 0.0 0.00 0.00 0.00 60 1009.8
20260508015738 9 359 0.0 1.6 0.00 0.00 0.00 61 1009.4
20260508015145 9 6 0.0 0.0 0.00 0.00 0.00 60 1009.4
20260508014517 10 6 0.0 0.0 0.00 0.00 0.00 59 1009.4
20260508012725 10 19 0.0 0.0 0.00 0.00 0.00 57 1009.1
20260508011528 10 22 0.0 0.0 0.00 0.00 0.00 61 1008.8
20260508010935 10 24 0.0 1.6 0.00 0.00 0.00 59 1008.8
20260508010349 10 20 0.0 0.0 0.00 0.00 0.00 58 1008.8
20260508005736 11 30 0.0 0.0 0.00 0.00 0.00 58 1008.8
20260508003908 11 41 1.6 1.6 0.00 0.00 0.00 54 1008.8
20260508003340 12 23 0.0 0.0 0.00 0.00 0.00 55 1008.4
20260508002734 12 24 0.0 0.0 0.00 0.00 0.00 50 1008.4
20260508002111 12 355 3.2 3.2 0.00 0.00 0.00 50 1008.4
20260508001532 12 30 0.0 0.0 0.00 0.00 0.00 52 1008.4
20260508000949 13 43 1.6 1.6 0.00 0.00 0.00 50 1008.4
20260508000335 13 28 0.0 0.0 0.00 0.00 0.00 49 1008.1
20260507235747 13 34 1.6 1.6 0.00 0.00 0.00 49 1008.1
20260507235119 13 29 0.0 0.0 0.00 0.00 0.00 48 1008.1
20260507234551 13 13 1.6 3.2 0.00 0.00 0.00 50 1008.1
20260507233938 13 228 0.0 1.6 0.00 0.00 0.00 48 1008.1
20260507233347 14 30 1.6 3.2 0.00 0.00 0.00 46 1007.7
20260507231535 14 2 3.2 3.2 0.00 0.00 0.00 45 1008.1
20260507225744 15 30 6.4 6.4 0.00 0.00 0.00 41 1007.7
20260507225120 15 18 1.6 3.2 0.00 0.00 0.00 41 1007.7
20260507224527 16 240 8.0 9.7 0.00 0.00 0.00 39 1007.7
20260507223918 16 317 1.6 3.2 0.00 0.00 0.00 39 1007.7
20260507223338 16 57 1.6 3.2 0.00 0.00 0.00 39 1007.7
20260507222719 16 236 4.8 6.4 0.00 0.00 0.00 40 1007.4
20260507221516 16 283 4.8 6.4 0.00 0.00 0.00 37 1007.4
20260507220312 16 326 4.8 4.8 0.00 0.00 0.00 39 1007.4
20260507215738 16 271 4.8 4.8 0.00 0.00 0.00 39 1007.4
20260507215144 16 43 3.2 4.8 0.00 0.00 0.00 40 1007.1
20260507213944 17 243 6.4 9.7 0.00 0.00 0.00 36 1007.4
20260507212737 17 310 9.7 14.5 0.00 0.00 0.00 36 1007.1
20260507211532 16 275 6.4 9.7 0.00 0.00 0.00 37 1007.1
20260507210928 16 334 3.2 4.8 0.00 0.00 0.00 38 1007.1
20260507210344 17 56 3.2 3.2 0.00 0.00 0.00 37 1007.1
20260507204547 17 341 4.8 4.8 0.00 0.00 0.00 39 1006.7
20260507202737 17 16 6.4 6.4 0.00 0.00 0.00 42 1006.7
20260507202152 17 296 6.4 9.7 0.00 0.00 0.00 37 1006.4
20260507201538 17 313 1.6 3.2 0.00 0.00 0.00 40 1006.7
20260507200938 16 303 3.2 6.4 0.00 0.00 0.00 40 1006.7
20260507195752 16 308 3.2 3.2 0.00 0.00 0.00 41 1007.1
20260507195151 17 198 6.4 9.7 0.00 0.00 0.00 40 1007.1
20260507194514 17 276 4.8 6.4 0.00 0.00 0.00 42 1007.1
20260507193951 17 347 1.6 1.6 0.00 0.00 0.00 43 1007.1
20260507192732 17 261 9.7 11.3 0.00 0.00 0.00 42 1007.1
20260507192146 17 81 1.6 1.6 0.00 0.00 0.00 42 1007.1
20260507191535 17 273 6.4 9.7 0.00 0.00 0.00 42 1007.1
20260507190936 17 54 1.6 1.6 0.00 0.00 0.00 45 1007.1
20260507185724 17 46 1.6 3.2 0.00 0.00 0.00 42 1007.4
20260507185150 17 246 9.7 12.9 0.00 0.00 0.00 39 1007.4
20260507184549 17 287 4.8 6.4 0.00 0.00 0.00 45 1007.4
20260507183951 17 271 8.0 12.9 0.00 0.00 0.00 41 1007.4
20260507183308 16 307 4.8 4.8 0.00 0.00 0.00 40 1007.7
20260507182714 17 295 6.4 12.9 0.00 0.00 0.00 42 1007.4
20260507182150 16 264 6.4 16.1 0.00 0.00 0.00 41 1007.4
20260507181510 17 239 9.7 11.3 0.00 0.00 0.00 43 1007.7
20260507180928 17 338 6.4 11.3 0.00 0.00 0.00 45 1007.7
20260507180324 16 72 3.2 4.8 0.00 0.00 0.00 45 1007.7
20260507174520 16 229 6.4 9.7 0.00 0.00 0.00 48 1007.7
20260507173945 16 242 4.8 6.4 0.00 0.00 0.00 44 1007.7
20260507172732 16 51 3.2 3.2 0.00 0.00 0.00 44 1007.7
20260507172129 16 254 4.8 11.3 0.00 0.00 0.00 46 1007.7
20260507170911 16 297 6.4 11.3 0.00 0.00 0.00 43 1008.1
20260507170321 16 261 3.2 4.8 0.00 0.00 0.00 48 1008.1
20260507165750 16 322 0.0 0.0 0.00 0.00 0.00 46 1008.1
20260507165135 15 91 3.2 4.8 0.00 0.00 0.00 47 1008.4
20260507163923 15 218 3.2 6.4 0.00 0.00 0.00 48 1008.4
20260507162722 15 153 4.8 6.4 0.00 0.00 0.00 48 1008.4
20260507162152 15 270 6.4 6.4 0.00 0.00 0.00 50 1008.4
20260507161555 15 54 0.0 0.0 0.00 0.00 0.00 50 1008.4
20260507160923 15 225 6.4 9.7 0.00 0.00 0.00 49 1008.4
20260507160346 15 23 0.0 0.0 0.00 0.00 0.00 52 1008.4
20260507155731 15 330 0.0 1.6 0.00 0.00 0.00 52 1008.4
20260507155123 15 280 6.4 9.7 0.00 0.00 0.00 50 1008.8
20260507154519 14 313 6.4 9.7 0.00 0.00 0.00 51 1008.8
20260507153911 15 303 4.8 6.4 0.00 0.00 0.00 51 1008.8
20260507153315 15 173 3.2 4.8 0.00 0.00 0.00 54 1008.8
20260507152750 14 262 4.8 4.8 0.00 0.00 0.00 51 1008.4
20260507151534 15 284 4.8 6.4 0.00 0.00 0.00 53 1008.4
20260507150347 13 310 3.2 4.8 0.00 0.00 0.00 52 1008.8
20260507145715 15 283 1.6 3.2 0.00 0.00 0.00 56 1008.8
20260507145111 14 81 1.6 3.2 0.00 0.00 0.00 55 1008.8
20260507144515 14 266 1.6 3.2 0.00 0.00 0.00 55 1008.8
20260507143939 14 2 0.0 1.6 0.00 0.00 0.00 58 1008.8
20260507143320 13 32 0.0 0.0 0.00 0.00 0.00 56 1008.8
20260507142123 13 241 4.8 9.7 0.00 0.00 0.00 59 1008.8
20260507141517 13 203 3.2 4.8 0.00 0.00 0.00 58 1008.8
20260507140926 13 27 0.0 0.0 0.00 0.00 0.00 60 1008.8
20260507140342 13 235 1.6 3.2 0.00 0.00 0.00 61 1008.8
20260507135143 13 53 1.6 1.6 0.00 0.00 0.00 63 1009.1
20260507134519 13 190 1.6 4.8 0.00 0.00 0.00 68 1009.1
20260507133319 12 337 0.0 0.0 0.00 0.00 0.00 65 1009.4
20260507132743 12 321 0.0 1.6 0.00 0.00 0.00 68 1009.4
20260507132122 11 313 0.0 0.0 0.00 0.00 0.00 73 1009.4